Overview Statistics Trail Chart Weather Telemetry Raw packets
 

This is the latest recevied weather packets stored in our database for station/object K6CEG. If no packets are shown the sender has not sent any weather packets the latest 10 day(s).

<< 1 2 3 4 5 >>
Time Temp. Humidity Pressure Rain* Wind** Luminosity Snow
1788678732 22.78° C 43% 1014.9 hPa 0 mm - 0 W/m² -
1788678429 22.78° C 42% 1014.7 hPa 0 mm - 0 W/m² -
1788678124 23.33° C 41% 1014.7 hPa 0 mm - 0 W/m² -
1788677824 23.33° C 41% 1014.5 hPa 0 mm - 0 W/m² -
1788677519 22.78° C 41% 1014.6 hPa 0 mm - 0 W/m² -
1788677215 23.33° C 41% 1014.8 hPa 0 mm - 0 W/m² -
1788676910 23.33° C 42% 1014.7 hPa 0 mm - 0 W/m² -
1788676605 23.33° C 41% 1015.1 hPa 0 mm - 0 W/m² -
1788676301 23.33° C 42% 1014.8 hPa 0 mm - 0 W/m² -
1788675997 23.33° C 42% 1015.1 hPa 0 mm - 0 W/m² -
1788675695 23.33° C 42% 1014.8 hPa 0 mm - 0 W/m² -
1788675392 23.33° C 42% 1015.1 hPa 0 mm - 0 W/m² -
1788675091 23.33° C 42% 1014.8 hPa 0 mm - 0 W/m² -
1788674788 23.33° C 42% 1014.8 hPa 0 mm - 0 W/m² -
1788674485 23.33° C 42% 1015.1 hPa 0 mm - 0 W/m² -
1788674181 23.33° C 41% 1014.8 hPa 0 mm - 0 W/m² -
1788673875 23.89° C 40% 1014.7 hPa 0 mm - 0 W/m² -
1788673578 23.33° C 41% 1014.9 hPa 0 mm - 0 W/m² -
1788673265 23.33° C 41% 1014.9 hPa 0 mm - 0 W/m² -
1788672962 23.33° C 42% 1015.2 hPa 0 mm - 0 W/m² -
1788672657 23.89° C 41% 1015.1 hPa 0 mm - 0 W/m² -
1788672352 23.89° C 40% 1015.2 hPa 0 mm - 0 W/m² -
1788672050 23.89° C 39% 1015.1 hPa 0 mm - 0 W/m² -
1788671744 23.89° C 39% 1014.9 hPa 0 mm - 0 W/m² -
1788671472 24.44° C 39% 1015.2 hPa 0 mm - 0 W/m² -

* Rain latest hour (hover to see other rain measurements)
** Current wind speed in m/s (hover to see current wind gust speed)